Bad Axe, MI

8:19 PM EDT on April 25, 2018 (GMT -0400)
Huron County Memorial

Weather History for KBAX - September, 2012

Change the Weather History Date:

Wednesday, September 12, 2012

  Actual Average (KP58) Record (KP58)
Temperature  
Mean Temperature 69 °F -  
Max Temperature 81 °F 72 °F 90 °F (2005)
Min Temperature 57 °F 56 °F 51 °F (2014)
Cooling Degree Days 4    
Growing Degree Days 19 (Base 50)    
Moisture  
Dew Point 55 °F    
Average Humidity 64    
Maximum Humidity 83    
Minimum Humidity 39    
Precipitation  
Precipitation 0.00 in - - ()
Sea Level Pressure  
Sea Level Pressure 30.16 in    
Wind  
Wind Speed 10 mph (SSW)    
Max Wind Speed 17 mph    
Max Gust Speed 24 mph    
Visibility 10 miles    
Events      
Averages and records for this station are not official NWS values.
T = Trace of Precipitation, MM = Missing Value Source: NWS Daily Summary

Daily Weather History Graph

Daily Weather History Graph

Search for Another Location

Airport or City:

Astronomy

Sep. 12, 2012 Rise Set
Actual Time 7:08 AM EDT 7:46 PM EDT
Civil Twilight 6:39 AM EDT 8:15 PM EDT
Nautical Twilight 6:05 AM EDT 8:50 PM EDT
Astronomical Twilight 5:29 AM EDT 9:25 PM EDT
Moon 3:18 AM EDT (9/12) 5:38 PM EDT (9/12)
Length of Visible Light 13h 36m
Length of Day
12h 38m
Waning Crescent, 14% of the Moon is Illuminated
Sep 12
Waning Crescent
Sep 15
New
Sep 22
First Quarter
Sep 29
Full
Oct 8
Last Quarter

Hourly Weather History & Observations

Time (EDT) Temp. Heat Index Dew Point Humidity Pressure Visibility Wind Dir Wind Speed Gust Speed Precip Events Conditions
12:35 AM 62.6 °F - 54.5 °F 75% 30.14 in 10.0 mi SSW 8.1 mph - N/A   Clear
12:54 AM 62.1 °F - 54.1 °F 75% 30.14 in 10.0 mi SSW 9.2 mph - N/A   Clear
1:15 AM 61.7 °F - 53.6 °F 75% 30.14 in 10.0 mi SSW 9.2 mph - N/A   Clear
1:35 AM 60.4 °F - 53.6 °F 78% 30.14 in 10.0 mi South 8.1 mph - N/A   Clear
1:54 AM 61.2 °F - 53.6 °F 76% 30.14 in 10.0 mi SSW 9.2 mph - N/A   Clear
2:15 AM 61.0 °F - 53.2 °F 76% 30.14 in 10.0 mi SSW 8.1 mph - N/A   Clear
2:35 AM 60.8 °F - 53.2 °F 76% 30.15 in 10.0 mi SSW 9.2 mph - N/A   Clear
2:54 AM 60.3 °F - 52.9 °F 77% 30.15 in 10.0 mi SSW 9.2 mph - N/A   Clear
3:15 AM 60.4 °F - 52.7 °F 76% 30.15 in 10.0 mi SSW 9.2 mph - N/A   Clear
3:35 AM 60.1 °F - 52.7 °F 77% 30.15 in 10.0 mi SSW 10.4 mph - N/A   Clear
3:54 AM 59.9 °F - 52.7 °F 77% 30.15 in 10.0 mi SSW 8.1 mph - N/A   Clear
4:15 AM 59.2 °F - 52.3 °F 78% 30.16 in 10.0 mi South 8.1 mph - N/A   Clear
4:35 AM 59.0 °F - 52.3 °F 79% 30.16 in 10.0 mi South 8.1 mph - N/A   Clear
4:54 AM 59.4 °F - 52.3 °F 78% 30.17 in 10.0 mi SSW 9.2 mph - N/A   Clear
5:15 AM 58.3 °F - 52.0 °F 80% 30.17 in 10.0 mi SSW 5.8 mph - N/A   Clear
5:35 AM 57.2 °F - 52.0 °F 83% 30.17 in 10.0 mi SSW 5.8 mph - N/A   Clear
5:54 AM 57.2 °F - 51.8 °F 82% 30.17 in 10.0 mi SSW 5.8 mph - N/A   Clear
6:15 AM 57.2 °F - 51.8 °F 82% 30.17 in 10.0 mi SSW 6.9 mph - N/A   Clear
6:34 AM 57.7 °F - 52.0 °F 81% 30.17 in 10.0 mi SSW 9.2 mph - N/A   Clear
6:55 AM 57.6 °F - 52.0 °F 82% 30.18 in 10.0 mi SSW 8.1 mph - N/A   Clear
7:15 AM 58.1 °F - 52.0 °F 80% 30.18 in 10.0 mi SSW 10.4 mph - N/A   Clear
7:34 AM 58.1 °F - 52.2 °F 81% 30.19 in 10.0 mi SSW 8.1 mph - N/A   Clear
7:55 AM 59.5 °F - 52.7 °F 78% 30.18 in 10.0 mi SSW 9.2 mph - N/A   Clear
8:15 AM 61.0 °F - 53.1 °F 75% 30.19 in 10.0 mi SSW 8.1 mph - N/A   Clear
8:34 AM 62.6 °F - 53.8 °F 73% 30.19 in 10.0 mi SSW 9.2 mph - N/A   Clear
8:55 AM 64.4 °F - 54.5 °F 70% 30.18 in 10.0 mi SSW 6.9 mph - N/A   Clear
9:15 AM 65.8 °F - 55.6 °F 69% 30.18 in 10.0 mi SSW 8.1 mph - N/A   Clear
9:34 AM 68.0 °F - 55.2 °F 64% 30.18 in 10.0 mi SSW 8.1 mph - N/A   Clear
9:55 AM 69.1 °F - 56.3 °F 64% 30.18 in 10.0 mi SSW 9.2 mph - N/A   Clear
10:15 AM 71.6 °F - 56.5 °F 59% 30.18 in 10.0 mi SW 9.2 mph - N/A   Clear
10:34 AM 72.7 °F - 57.2 °F 58% 30.18 in 10.0 mi SSW 10.4 mph 16.1 mph N/A   Clear
10:55 AM 73.4 °F - 57.0 °F 56% 30.18 in 10.0 mi SW 12.7 mph 20.7 mph N/A   Clear
11:15 AM 74.5 °F - 57.7 °F 56% 30.18 in 10.0 mi SW 16.1 mph 20.7 mph N/A   Clear
11:34 AM 75.6 °F - 58.3 °F 55% 30.18 in 10.0 mi SW 12.7 mph 18.4 mph N/A   Clear
11:55 AM 76.5 °F - 57.7 °F 52% 30.17 in 10.0 mi SW 13.8 mph 20.7 mph N/A   Clear
12:15 PM 77.0 °F - 58.3 °F 52% 30.17 in 10.0 mi SW 17.3 mph 21.9 mph N/A   Clear
12:35 PM 77.5 °F - 58.1 °F 51% 30.16 in 10.0 mi SW 15.0 mph 20.7 mph N/A   Clear
12:55 PM 78.8 °F - 59.7 °F 52% 30.16 in 10.0 mi SSW 12.7 mph 18.4 mph N/A   Clear
1:15 PM 78.8 °F - 59.2 °F 51% 30.16 in 10.0 mi SW 11.5 mph 19.6 mph N/A   Clear
1:35 PM 79.7 °F - 58.8 °F 49% 30.16 in 10.0 mi SW 13.8 mph 18.4 mph N/A   Clear
1:55 PM 79.9 °F - 58.1 °F 47% 30.16 in 10.0 mi SSW 16.1 mph 21.9 mph N/A   Clear
2:15 PM 80.6 °F 80.8 °F 57.4 °F 45% 30.15 in 10.0 mi SSW 15.0 mph 18.4 mph N/A   Clear
2:35 PM 81.3 °F 81.3 °F 57.7 °F 44% 30.15 in 10.0 mi SSW 17.3 mph 21.9 mph N/A   Clear
2:55 PM 81.7 °F 81.8 °F 58.3 °F 45% 30.15 in 10.0 mi SSW 12.7 mph 18.4 mph N/A   Clear
3:14 PM 81.5 °F 81.3 °F 56.7 °F 42% 30.14 in 10.0 mi SSW 11.5 mph 20.7 mph N/A   Clear
3:35 PM 81.5 °F 81.4 °F 56.8 °F 43% 30.14 in 10.0 mi SSW 13.8 mph - N/A   Clear
3:55 PM 81.5 °F 81.3 °F 56.7 °F 42% 30.13 in 10.0 mi SSW 17.3 mph 21.9 mph N/A   Clear
4:15 PM 81.5 °F 81.3 °F 56.7 °F 42% 30.13 in 10.0 mi South 17.3 mph 23.0 mph N/A   Clear
4:35 PM 81.1 °F 80.9 °F 55.6 °F 41% 30.12 in 10.0 mi SSW 15.0 mph 24.2 mph N/A   Clear
4:55 PM 80.8 °F 80.4 °F 53.8 °F 39% 30.12 in 10.0 mi SSW 16.1 mph - N/A   Clear
5:14 PM 80.6 °F 80.4 °F 54.9 °F 41% 30.12 in 10.0 mi SSW 13.8 mph 21.9 mph N/A   Clear
5:55 PM 80.1 °F 80.1 °F 54.7 °F 41% 30.12 in 10.0 mi SSW 15.0 mph 23.0 mph N/A   Clear
6:15 PM 79.5 °F - 57.4 °F 47% 30.12 in 10.0 mi SSW 13.8 mph - N/A   Clear
6:35 PM 78.8 °F - 55.9 °F 45% 30.13 in 10.0 mi SSW 9.2 mph - N/A   Clear
6:55 PM 76.8 °F - 57.4 °F 51% 30.13 in 10.0 mi SSW 8.1 mph - N/A   Clear
7:15 PM 74.5 °F - 57.9 °F 56% 30.13 in 10.0 mi SSW 5.8 mph - N/A   Clear
7:35 PM 71.8 °F - 57.6 °F 61% 30.14 in 10.0 mi SSW 4.6 mph - N/A   Clear
8:35 PM 67.5 °F - 56.5 °F 68% 30.16 in 10.0 mi SSW 4.6 mph - N/A   Clear
8:55 PM 64.8 °F - 56.5 °F 74% 30.17 in 10.0 mi South 5.8 mph - N/A   Clear
9:15 PM 65.8 °F - 56.3 °F 71% 30.17 in 10.0 mi SSW 4.6 mph - N/A   Clear
9:35 PM 64.4 °F - 55.6 °F 73% 30.18 in 10.0 mi SSW 5.8 mph - N/A   Clear
9:55 PM 66.2 °F - 55.8 °F 69% 30.18 in 10.0 mi SSW 6.9 mph - N/A   Clear
10:15 PM 64.4 °F - 55.4 °F 73% 30.18 in 10.0 mi SSW 6.9 mph - N/A   Clear
10:35 PM 64.8 °F - 55.8 °F 73% 30.18 in 10.0 mi SSW 5.8 mph - N/A   Clear
10:55 PM 65.8 °F - 55.8 °F 70% 30.18 in 10.0 mi SSW 8.1 mph - N/A   Clear
11:15 PM 65.8 °F - 55.6 °F 69% 30.18 in 10.0 mi SSW 6.9 mph - N/A   Clear
11:35 PM 64.4 °F - 55.4 °F 73% 30.19 in 10.0 mi SSW 5.8 mph - N/A   Clear
11:55 PM 64.4 °F - 55.6 °F 73% 30.19 in 10.0 mi SSW 6.9 mph - N/A   Clear